STARLINK-33777, 63843

Orbit data source: Space-Track

STARLINK-33777, 63843 is a payload satellite owned by SpaceX/Seattle (US) in LEO that was launched on Wed, 07 May 2025 UTC via an FALCON 9 launch vehicle from the Air Force Eastern Test Range (AFETR). Payload-class satellites include a variety of spacecraft equipped with specific instruments for various scientific and technological missions. These include communications satellites like Starlink; space stations such as the ISS; scientific satellites like the Hubble; Earth observation satellites from companies like Planet Labs, Umbra, and HawkEye 360; GPS; miniature CubeSats for education and research; and military/defense satellites.

Loading next visibility...
Identifier
63843, 2025-093H
Orbit
LEO
Country
Flag of USUS
Related business
Manufacturer
SpaceX/Seattle
Mission
Operational Commercial Communications
Bus & Motor
STARLINK V2MO, Unknown motor
Mass
575 kg wet, ~530 kg dry
Launch date (UTC)
2025-05-07 (1 year ago)
Launch vehicle
FALCON 9
Launch site
Air Force Eastern Test Range (AFETR)
Object type
Payload
Rocket body
Debris
Shape & HBR
Box + 2 Pan, 17.7 m
Radar Cross Section
36.964 m², Large (>1 m²)

Expand to show TLE details & history
Last TLE update: 12 hours ago

TLE from 12 hours ago
0 STARLINK-33777
1 63843U 25093H   26171.40139779  .00015667  00000-0  57743-3 0  9994
2 63843  43.0001 217.5768 0000815 268.4147  91.6611 15.27591077 63687
Epoch: 2026-06-20T09:38Z
TLE epoch observation values (Epoch: 2026-06-20T09:38:00.769Z)
Latitude
-0.00002°
Longitude
164.45703°
Altitude
482.808 km
Speed
7.626 km/s
True Right ascension
14h 30m 18s
True Declination
0° 00' 00"
Sunlit
Object was in full shadow at epoch
Visualization orbit readout
Latitude
Unknown
Longitude
Unknown
Altitude
Unknown
Speed
Unknown
Apparent Right ascension
Unknown
Apparent Declination
Unknown
Sunlit
N/A
Visualization observer readout
Local Sidereal Time
08:42:32
Azimuth
Unknown
Elevation
Unknown
Doppler factor
Unknown
Orbital elements
Apogee altitude
485.52 km
Perigee altitude
484.402 km
Semi-major axis
6,863.098 km
Eccentricity
0.00008
Inclination
43.0001°
RAAN
217.5768°
Arg. of periapsis
268.4147°
True anomaly
91.67044°
Mean anomaly
91.6611°
Eccentric anomaly
91.66577°
Mean motion
3.81736 °/min
Orbital period
94.31 mins
BSTAR
0.00057743
Loading maneuver chart data...
Computing Atmospheric mass density...
Loading historical data...
Loading historical data...
Loading historical data...
Loading historical data...
Loading historical data...
Loading historical data...
Loading historical data...

Documentation

Showing up to 5 results
|